Ketchikan, AK

9:07 AM AKST on November 13, 2018 (GMT -0900)
Ketchikan International

Weather History for PAKT - November, 2017

Change the Weather History Date:

Monday, November 20, 2017

  Actual Average Record
Temperature  
Mean Temperature 36 °F -  
Max Temperature 42 °F 43 °F 56 °F (1949)
Min Temperature 30 °F 32 °F 10 °F (1996)
Degree Days  
Heating Degree Days 29    
Moisture  
Dew Point 30 °F    
Average Humidity 76    
Maximum Humidity 96    
Minimum Humidity 58    
Precipitation  
Precipitation 0.01 in - - ()
Sea Level Pressure  
Sea Level Pressure 29.70 in    
Wind  
Wind Speed 4 mph (SSE)    
Max Wind Speed 18 mph    
Max Gust Speed 30 mph    
Visibility 10 miles    
Events Rain , Snow    
Averages and records for this station are not official NWS values.
T = Trace of Precipitation, MM = Missing Value Source: NWS Daily Summary

Daily Weather History Graph

Daily Weather History Graph

Search for Another Location

Airport or City:

Astronomy

Nov. 20, 2017 Rise Set
Actual Time 7:31 AM AKST 3:33 PM AKST
Civil Twilight 6:48 AM AKST 4:15 PM AKST
Nautical Twilight 6:03 AM AKST 5:01 PM AKST
Astronomical Twilight 5:19 AM AKST 5:44 PM AKST
Moon 9:22 AM AKST (11/20) 5:31 PM AKST (11/20)
Length of Visible Light 9h 27m
Length of Day
8h 02m
Waxing Crescent, 5% of the Moon is Illuminated
Nov 20
Waxing Crescent
Nov 26
First Quarter
Dec 3
Full
Dec 9
Last Quarter
Dec 17
New

Hourly Weather History & Observations

Time (AKST) Temp. Windchill Dew Point Humidity Pressure Visibility Wind Dir Wind Speed Gust Speed Precip Events Conditions
12:53 AM 30.9 °F - 30.0 °F 96% 29.58 in 10.0 mi Calm Calm - N/A   Scattered Clouds
1:48 AM 30.2 °F - 28.4 °F 93% 29.57 in 10.0 mi Calm Calm - N/A   Mostly Cloudy
1:53 AM 30.0 °F - 28.0 °F 92% 29.58 in 10.0 mi Calm Calm - N/A   Mostly Cloudy
2:53 AM 30.9 °F - 28.9 °F 92% 29.58 in 10.0 mi Calm Calm - N/A   Mostly Cloudy
3:02 AM 30.9 °F - 28.9 °F 92% 29.58 in 10.0 mi Calm Calm - N/A   Overcast
3:53 AM 33.1 °F 30.0 °F 30.9 °F 92% 29.59 in 10.0 mi SSE 3.5 mph - N/A   Overcast
4:41 AM 34.0 °F - 32.0 °F 92% 29.59 in 10.0 mi Calm Calm - N/A   Overcast
4:53 AM 34.0 °F 31.0 °F 32.0 °F 92% 29.60 in 8.0 mi SSE 3.5 mph - 0.00 in Snow Light Snow
5:53 AM 35.1 °F - 32.0 °F 89% 29.61 in 10.0 mi Calm Calm - 0.01 in   Overcast
6:03 AM 35.1 °F 32.2 °F 33.1 °F 92% 29.60 in 10.0 mi South 3.5 mph - N/A   Overcast
7:53 AM 37.4 °F 32.8 °F 32.0 °F 81% 29.65 in 10.0 mi Variable 5.8 mph - N/A   Overcast
8:53 AM 39.2 °F 35.9 °F 30.2 °F 70% 29.67 in 10.0 mi Variable 4.6 mph - N/A   Overcast
9:53 AM 39.2 °F 35.0 °F 30.2 °F 70% 29.68 in 10.0 mi Variable 5.8 mph - N/A   Mostly Cloudy
10:53 AM 39.2 °F 33.6 °F 30.2 °F 70% 29.70 in 10.0 mi SSE 8.1 mph - N/A   Overcast
11:53 AM 41.0 °F 32.8 °F 30.2 °F 65% 29.71 in 10.0 mi SE 16.1 mph - N/A   Overcast
12:53 PM 41.0 °F 38.0 °F 30.0 °F 65% 29.73 in 10.0 mi Variable 4.6 mph - N/A   Mostly Cloudy
1:53 PM 41.0 °F 37.1 °F 30.9 °F 67% 29.73 in 10.0 mi South 5.8 mph - N/A   Mostly Cloudy
2:53 PM 39.9 °F 34.5 °F 28.9 °F 65% 29.74 in 10.0 mi South 8.1 mph - N/A   Scattered Clouds
3:53 PM 39.0 °F 34.8 °F 30.0 °F 70% 29.76 in 10.0 mi South 5.8 mph - N/A   Overcast
4:53 PM 39.0 °F 33.4 °F 28.9 °F 67% 29.78 in 10.0 mi South 8.1 mph - N/A   Mostly Cloudy
5:53 PM 39.9 °F 34.5 °F 28.9 °F 65% 29.81 in 10.0 mi South 8.1 mph - 0.00 in   Overcast
6:53 PM 42.1 °F 36.1 °F 28.0 °F 58% 29.81 in 10.0 mi SSE 10.4 mph 23.0 mph N/A   Overcast
7:53 PM 42.1 °F 36.1 °F 28.0 °F 58% 29.82 in 10.0 mi SSE 10.4 mph 21.9 mph N/A   Overcast
8:53 PM 42.1 °F 34.9 °F 28.9 °F 60% 29.85 in 10.0 mi SSE 13.8 mph 21.9 mph N/A   Overcast
9:53 PM 42.1 °F 35.2 °F 28.9 °F 60% 29.86 in 10.0 mi SE 12.7 mph 29.9 mph N/A   Overcast
10:53 PM 42.1 °F 34.9 °F 32.0 °F 67% 29.88 in 10.0 mi SSE 13.8 mph 28.8 mph 0.00 in   Overcast
11:53 PM 42.1 °F 33.6 °F 33.1 °F 70% 29.89 in 10.0 mi SE 18.4 mph 27.6 mph 0.00 in Rain Light Rain